Voltar ao catálogo

USA 371

AtivoMilitarVLEO
NORAD 59831·PAYLOAD·🇺🇸 United States

Lançado May 22, 2024 de Vandenberg Space Force Base

Loading…

Próximas Passagens (próximas 24 horas)

TLE

ObsoletoSource: Mike McCants

Época: Aug 25, 2026, 20:13 UTC

1 59831U 24096T   26237.84295130 0.00000000  00000-0  00000-0 0    02
2 59831  70.0232 137.0379 0003004 127.9261 232.0738 14.96713072    02

Acompanhe USA 371 em tempo real com AllMySat

Download on the App Store